Content
SEND FEEDBACK

Daily
Averages
Monthly
Summary
Canada

VICTORIA, BRITISH COLUMBIA


Home > North America > Canada > British Columbia
Elevation: 62 feet     Latitude: 48 39N     Longitude: 123 26W

WEATHER
 
SELECT A DAY
Number of Records: 195,763;   Date Range: 1/1/95 - 9/17/14
 
SHARE

PRINT THIS DATA

[ ← Previous Day ]
WEATHER ALMANAC - JANUARY 3, 2013
[ Next Day → ]
[ °C ]   °F
Weather ElementAverageHighLow
Temperature32.3 °F41 °F (2:00 pm)26.6 °F (4:36 am)
Dewpoint16.6 °F34 °F (10:00 pm) (7:00 pm)
Humidity92 %100 % (1:00 am)65 % (2:00 pm)
Wind Speed4.9 mph8.1 mph (9:00 pm)
Weather ElementAverage
Visibility12.4 mi
Wind Direction (366.6 °)

Weather ElementTotal
Precipitation---
Heating Degree Days31.2 (Base 65)
Averaged from 51 records on January 3, 2013
WEATHER CONDITIONS BREAKOUT
WIND DIRECTION BREAKOUT
WEATHER BY HOUR - JANUARY 3, 2013
[ °C ]   °F
Local TimeTemperatureDewpointHumidityBarometerVisibilityWind DirectionWind SpeedGust SpeedPrecipitationEventsConditions
1:00 AM28.4 °F28.4 °F100 %30.22 in15.0 miWSW (250°)4.6 mphClear
2:00 AM30.2 °F28.4 °F93 %30.22 in15.0 miWest (280°)6.9 mphPartly Cloudy
3:00 AM28.4 °F28.4 °F100 %30.22 in15.0 miWest (270°)5.8 mphClear
4:00 AM28.0 °F27.0 °F92 %30.20 in15.0 miWSW (250°)6.9 mph
4:00 AM28.4 °F26.6 °F93 %30.20 in15.0 miWest (260°)6.9 mphClear
4:36 AM26.6 °F0.0 °F10.0 miWest (270°)5.8 mphPartly Cloudy
5:00 AM30.2 °F28.4 °F93 %30.19 in5.0 miWest (270°)4.6 mphPartly Cloudy
5:09 AM28.4 °F0.0 °F4.0 miWest (270°)5.8 mphMostly Cloudy
5:18 AM30.2 °F0.0 °F3.0 miWest (260°)4.6 mphScattered Clouds
5:30 AM30.2 °F0.0 °F3.0 miWest (270°)5.8 mphMostly Cloudy
5:41 AM28.4 °F0.0 °F2.0 miWest (270°)4.6 mphMostly Cloudy
5:44 AM30.2 °F0.0 °F1.0 miWest (260°)3.5 mphOvercast
5:50 AM30.2 °F0.0 °F0.0 mi5.8 (2013°)0.00 inLight Freezing Fog240
6:00 AM30.2 °F30.2 °F100 %30.17 in0.6 miWSW (240°)5.8 mphOvercast
6:08 AM30.2 °F0.0 °F2.0 miWSW (250°)5.8 mphMostly Cloudy
6:17 AM30.2 °F0.0 °F4.0 miWNW (290°)3.5 mphMostly Cloudy
6:39 AM30.2 °F0.0 °F5.0 miWNW (290°)5.8 mphScattered Clouds
6:55 AM28.4 °F0.0 °F4.0 miWest (270°)4.6 mphMostly Cloudy
7:00 AM28.4 °F26.6 °F93 %30.15 in2.0 miWest (280°)5.8 mphMostly Cloudy
7:07 AM30.2 °F0.0 °F0.0 mi6.9 (2013°)Mist270
7:19 AM32.0 °F0.0 °F1.0 miWest (270°)5.8 mphClear
7:28 AM30.2 °F0.0 °F5.0 miWest (260°)5.8 mphPartly Cloudy
8:00 AM30.2 °F28.4 °F93 %30.14 in20.0 miCalmPartly Cloudy
8:35 AM28.4 °F0.0 °F12.0 miWest (260°)3.5 mphMostly Cloudy
8:48 AM28.4 °F0.0 °F5.0 miWest (280°)2.3 mphMostly Cloudy
8:55 AM30.2 °F0.0 °F0.0 mi3.5 (2013°)Mostly Cloudy300
9:00 AM30.2 °F28.4 °F93 %30.14 in0.8 miWNW (290°)2.3 mphMostly Cloudy
9:14 AM32.0 °F0.0 °F3.0 miWSW (240°)3.5 mphScattered Clouds
9:27 AM32.0 °F0.0 °F15.0 miWest (280°)3.5 mphPartly Cloudy
10:00 AM33.0 °F33.0 °F97 %30.15 in28.0 miWSW (240°)3.5 mphPartly Cloudy
10:00 AM33.8 °F32.0 °F93 %30.15 in30.0 miWSW (240°)3.5 mphPartly Cloudy
11:00 AM35.6 °F33.8 °F93 %30.16 in30.0 miWest (280°)5.8 mphPartly Cloudy
12:00 PM37.4 °F33.8 °F87 %30.14 in30.0 miNW (310°)2.3 mphPartly Cloudy
1:00 PM39.2 °F33.8 °F81 %30.12 in30.0 miWest (270°)3.5 mphPartly Cloudy
2:00 PM41.0 °F30.2 °F65 %30.11 in30.0 miNorth (360°)3.5 mphScattered Clouds
3:00 PM37.4 °F33.8 °F87 %30.11 in30.0 miWest (270°)3.5 mphMostly Cloudy
4:00 PM36.0 °F33.0 °F87 %30.13 in28.0 miSW (220°)4.6 mphMostly Cloudy
4:00 PM35.6 °F33.8 °F93 %30.13 in30.0 miSW (220°)4.6 mphMostly Cloudy
5:00 PM37.4 °F33.8 °F87 %30.11 in30.0 miNNW (330°)2.3 mphMostly Cloudy
6:00 PM35.6 °F33.8 °F93 %30.11 in30.0 miWSW (250°)4.6 mphMostly Cloudy
7:00 PM37.4 °F33.8 °F87 %30.12 in30.0 miWNW (300°)6.9 mphMostly Cloudy
7:19 PM37.4 °F0.0 °F30.0 miWest (270°)3.5 mphRainLight Rain
8:00 PM35.6 °F33.8 °F93 %30.12 in30.0 miWNW (290°)5.8 mphRainLight Rain
9:00 PM33.8 °F33.8 °F100 %30.12 in7.0 miWNW (300°)8.1 mphRainLight Rain
9:34 PM33.8 °F0.0 °F7.0 miWest (270°)6.9 mphRainLight Rain
10:00 PM33.8 °F33.8 °F100 %30.12 in6.0 miWSW (250°)6.9 mphRainLight Rain
10:00 PM35.0 °F34.0 °F92 %30.12 in6.0 miWSW (250°)8.1 mphRainLight Rain
11:00 PM33.8 °F33.8 °F100 %30.14 in3.0 miWest (270°)5.8 mphRainLight Rain
11:15 PM35.6 °F0.0 °F2.5 miWest (280°)5.8 mphRainLight Rain
11:38 PM35.6 °F0.0 °F2.0 miWest (260°)5.8 mphLight Drizzle
11:49 PM35.6 °F0.0 °F2.0 miWSW (250°)5.8 mphRainLight Rain
Hourly data recorded from CYYJ, located miles away from Victoria, British Columbia







STORIES FROM OUR PARTNERS